FW7384 Weather Reports


Display with metric or nautical units.
time (UTC)temp
F
wind
direction
speed
MPH
gust
MPH
rain 1hr
in
rain 24hr
in
rain mn
in
humidity
%
barometer
mb
20260504234503 44 207 3.0 13.0 0.00 0.15 0.00 85 1008.9
20260504234212 44 211 4.0 13.0 0.00 0.15 0.00 84 1008.8
20260504233503 44 209 3.0 7.0 0.00 0.16 0.00 85 1008.9
20260504233003 44 202 3.0 7.0 0.00 0.16 0.00 85 1008.9
20260504232503 44 188 3.0 8.0 0.00 0.17 0.00 85 1008.9
20260504232003 44 197 3.0 9.0 0.00 0.17 0.00 85 1009.0
20260504231503 44 203 3.0 9.0 0.00 0.17 0.00 84 1009.1
20260504231003 44 200 3.0 9.0 0.00 0.17 0.00 85 1009.0
20260504230503 44 205 3.0 9.0 0.00 0.18 0.00 85 1009.0
20260504230003 44 206 3.0 10.0 0.00 0.18 0.00 85 1008.8
20260504225503 44 209 4.0 10.0 0.00 0.18 0.00 85 1009.0
20260504225214 44 207 3.0 9.0 0.00 0.18 0.00 85 1009.0
20260504224503 44 187 2.0 7.0 0.00 0.18 0.00 85 1009.0
20260504224003 44 196 3.0 11.0 0.00 0.18 0.00 85 1009.0
20260504223503 44 204 3.0 11.0 0.00 0.18 0.00 84 1009.0
20260504223003 44 212 4.0 9.0 0.00 0.18 0.00 85 1009.0
20260504222503 44 201 5.0 9.0 0.00 0.18 0.00 84 1009.2
20260504222003 44 198 5.0 11.0 0.00 0.18 0.00 84 1009.1
20260504221503 44 200 4.0 11.0 0.00 0.18 0.00 85 1009.3
20260504221003 44 200 4.0 9.0 0.00 0.18 0.00 84 1009.3
20260504220503 44 203 4.0 8.0 0.00 0.19 0.00 85 1009.2
20260504220004 44 204 3.0 8.0 0.00 0.19 0.00 85 1009.4
20260504215503 44 205 3.0 13.0 0.00 0.20 0.19 84 1009.2
20260504215003 44 201 3.0 13.0 0.00 0.20 0.19 84 1009.2
20260504214503 45 205 4.0 13.0 0.00 0.20 0.19 85 1009.3
20260504214213 45 206 3.0 9.0 0.00 0.20 0.19 84 1009.2
20260504213504 44 199 3.0 9.0 0.00 0.20 0.19 84 1009.3
20260504213003 44 200 4.0 8.0 0.00 0.20 0.19 84 1009.4
20260504212503 44 204 3.0 8.0 0.00 0.20 0.19 84 1009.3
20260504212003 44 205 2.0 6.0 0.00 0.20 0.19 85 1009.2
20260504211503 44 200 2.0 5.0 0.00 0.20 0.19 85 1009.3
20260504211003 44 205 2.0 8.0 0.00 0.20 0.19 84 1009.4
20260504210712 44 194 2.0 8.0 0.00 0.20 0.19 84 1009.3
20260504210004 45 202 3.0 9.0 0.00 0.20 0.19 83 1009.3
20260504205503 45 208 3.0 7.0 0.00 0.20 0.19 83 1009.2
20260504205003 45 220 2.0 6.0 0.00 0.20 0.19 82 1009.3
20260504204503 45 219 2.0 7.0 0.00 0.20 0.19 82 1009.1
20260504204003 45 209 3.0 7.0 0.00 0.20 0.19 81 1009.3
20260504203503 45 210 3.0 12.0 0.00 0.20 0.19 81 1009.2
20260504203003 45 209 3.0 12.0 0.00 0.20 0.19 80 1009.0
20260504202714 45 209 3.0 12.0 0.00 0.20 0.19 80 1009.1
20260504202003 46 212 3.0 9.0 0.00 0.20 0.19 80 1009.2
20260504201503 46 213 3.0 6.0 0.00 0.20 0.19 79 1009.1
20260504201003 46 213 3.0 6.0 0.00 0.20 0.19 78 1009.1
20260504200714 46 213 3.0 7.0 0.00 0.20 0.19 77 1009.1
20260504200213 46 199 3.0 10.0 0.00 0.20 0.19 76 1009.3
20260504195503 46 201 3.0 6.0 0.00 0.20 0.19 75 1009.1
20260504195003 46 206 4.0 7.0 0.00 0.20 0.19 74 1009.1
20260504194503 47 212 3.0 7.0 0.00 0.20 0.19 73 1009.0
20260504194003 47 210 4.0 9.0 0.00 0.20 0.19 71 1009.0
20260504193503 47 201 4.0 10.0 0.00 0.20 0.19 70 1009.0
20260504193003 47 194 3.0 12.0 0.00 0.20 0.19 67 1008.9
20260504192504 47 194 3.0 12.0 0.00 0.20 0.19 66 1009.0
20260504192213 47 196 3.0 5.0 0.00 0.20 0.19 64 1008.9
20260504191503 48 201 3.0 5.0 0.00 0.20 0.19 63 1008.8
20260504191003 48 193 3.0 10.0 0.00 0.20 0.19 62 1008.8
20260504190713 48 192 3.0 10.0 0.00 0.20 0.19 62 1008.7
20260504190004 48 197 3.0 5.0 0.00 0.20 0.19 61 1008.8
20260504185503 49 187 2.0 6.0 0.00 0.20 0.19 61 1008.8
20260504185212 49 194 2.0 6.0 0.00 0.20 0.19 61 1008.7
20260504184503 49 204 2.0 5.0 0.00 0.20 0.19 60 1008.8
20260504184003 49 206 1.0 3.0 0.00 0.20 0.19 58 1008.6
20260504183503 50 214 2.0 6.0 0.00 0.20 0.19 57 1008.7
20260504183003 50 209 3.0 11.0 0.00 0.20 0.19 56 1008.9
20260504182503 50 208 3.0 11.0 0.00 0.20 0.19 55 1008.8
20260504182003 50 212 4.0 11.0 0.00 0.20 0.19 54 1008.7
20260504181504 51 212 4.0 9.0 0.00 0.20 0.19 53 1008.7
20260504181003 51 215 4.0 9.0 0.00 0.20 0.19 52 1008.7
20260504180503 51 213 4.0 9.0 0.00 0.20 0.19 51 1008.7
20260504180003 51 204 4.0 10.0 0.00 0.20 0.19 49 1008.6
20260504175503 52 196 4.0 10.0 0.00 0.20 0.19 47 1008.7
20260504175214 52 195 4.0 10.0 0.00 0.20 0.19 45 1008.7
20260504174503 52 217 3.0 9.0 0.00 0.20 0.19 43 1008.7
20260504174003 52 234 3.0 7.0 0.00 0.20 0.19 42 1008.7
20260504173503 53 235 3.0 8.0 0.00 0.20 0.19 42 1008.7
20260504173003 53 220 3.0 9.0 0.00 0.20 0.19 41 1008.5
20260504172503 53 209 4.0 11.0 0.00 0.20 0.19 40 1008.6
20260504172003 53 212 4.0 11.0 0.00 0.20 0.19 40 1008.5
20260504171503 54 221 4.0 10.0 0.00 0.20 0.19 43 1008.5
20260504171003 54 224 4.0 10.0 0.00 0.20 0.19 43 1008.4
20260504170503 54 223 3.0 8.0 0.00 0.20 0.19 43 1008.5
20260504150503 58 215 5.0 12.0 0.00 0.20 0.19 43 1007.7
20260504141003 58 202 5.0 12.0 0.00 0.20 0.19 53 1007.7
20260504140503 58 199 5.0 12.0 0.00 0.20 0.19 53 1007.5
20260504130503 57 202 7.0 14.0 0.00 0.20 0.19 53 1007.4
20260504110503 55 198 6.0 13.0 0.00 0.20 0.19 56 1006.7
20260504110213 55 201 6.0 12.0 0.00 0.20 0.19 53 1006.7
20260504100503 55 205 7.0 13.0 0.00 0.20 0.19 45 1006.5
20260504082003 52 190 4.0 9.0 0.00 0.20 0.19 90 1006.1
20260504081503 51 194 4.0 7.0 0.00 0.20 0.19 92 1006.2
20260504081003 51 200 3.0 7.0 0.00 0.20 0.19 91 1006.0
20260504080503 51 197 2.0 5.0 0.00 0.20 0.19 92 1006.1
20260504050503 47 168 2.0 4.0 0.00 0.19 0.19 99 1005.6
20260504050003 47 166 1.0 4.0 0.00 0.19 0.19 99 1005.6
20260504045503 47 166 1.0 4.0 0.00 0.19 0.19 99 1005.8
20260504045003 47 159 2.0 4.0 0.00 0.19 0.19 99 1005.4
20260504044503 47 173 2.0 4.0 0.00 0.19 0.19 99 1005.4
20260504044003 47 167 1.0 4.0 0.00 0.19 0.19 99 1005.6
20260504043503 47 173 2.0 4.0 0.00 0.19 0.19 99 1005.7
20260504043003 47 174 1.0 4.0 0.01 0.19 0.19 99 1005.7
20260504042503 47 146 1.0 4.0 0.01 0.19 0.19 99 1005.6
20260504042003 46 126 1.0 4.0 0.01 0.19 0.19 99 1005.6
20260504041503 46 115 2.0 4.0 0.01 0.19 0.19 99 1005.4
20260504041003 47 141 2.0 4.0 0.01 0.19 0.19 99 1005.7
20260504040503 46 161 2.0 4.0 0.01 0.19 0.19 99 1005.7
20260504040003 46 155 2.0 4.0 0.01 0.19 0.19 99 1005.9
20260504035714 46 150 2.0 4.0 0.01 0.19 0.19 99 1006.0
20260504035003 47 133 2.0 4.0 0.02 0.19 0.18 99 1005.9
20260504034503 46 165 1.0 3.0 0.02 0.19 0.18 99 1005.9
20260504034003 46 194 1.0 3.0 0.02 0.19 0.18 99 1005.9
20260504033503 46 207 1.0 3.0 0.02 0.19 0.18 99 1006.0
20260504033003 46 228 1.0 3.0 0.02 0.19 0.18 99 1006.1
20260504032503 46 294 1.0 3.0 0.02 0.19 0.18 99 1006.2
20260504032003 46 322 1.0 3.0 0.03 0.19 0.18 99 1005.9
20260504031503 47 202 1.0 3.0 0.02 0.18 0.18 99 1006.1
20260504031003 47 226 1.0 3.0 0.02 0.18 0.18 99 1006.0
20260504030503 47 144 1.0 4.0 0.02 0.18 0.17 99 1006.1
20260504030003 47 115 1.0 4.0 0.02 0.18 0.17 99 1006.1
20260504025713 47 78 1.0 3.0 0.02 0.18 0.17 99 1006.1
20260504025212 47 108 0.0 3.0 0.01 0.17 0.17 98 1006.2
20260504024503 47 143 0.0 1.0 0.01 0.17 0.17 98 1006.3
20260504024003 47 176 0.0 1.0 0.01 0.17 0.17 98 1006.4
20260504023503 47 195 0.0 2.0 0.01 0.17 0.16 98 1006.4
20260504023003 47 192 0.0 2.0 0.01 0.17 0.16 98 1006.3
20260504022503 47 142 0.0 1.0 0.01 0.16 0.16 98 1006.4
20260504022003 47 135 0.0 1.0 0.01 0.16 0.16 98 1006.4
20260504021503 47 227 0.0 1.0 0.01 0.16 0.16 98 1006.4
20260504021003 47 227 0.0 1.0 0.02 0.16 0.16 98 1006.5
20260504020503 47 0 0.0 0.0 0.03 0.16 0.16 98 1006.4
20260504020003 47 129 0.0 1.0 0.03 0.16 0.16 98 1006.4
20260504015503 47 141 0.0 1.0 0.04 0.16 0.16 98 1006.5
20260504015003 47 134 0.0 1.0 0.04 0.16 0.16 98 1006.5
20260504014713 47 91 0.0 2.0 0.04 0.16 0.16 98 1006.5
20260504014003 47 100 0.0 2.0 0.04 0.16 0.15 98 1006.5
20260504013503 47 119 0.0 1.0 0.04 0.16 0.15 98 1006.6
20260504013003 47 141 0.0 2.0 0.04 0.15 0.15 98 1006.7
20260504012713 47 155 0.0 2.0 0.04 0.15 0.15 98 1006.8
20260504012003 47 169 0.0 1.0 0.05 0.15 0.15 98 1006.9
20260504011503 47 172 0.0 1.0 0.07 0.15 0.15 98 1007.1
20260504011003 47 144 0.0 2.0 0.07 0.14 0.14 98 1006.8
20260504010713 47 146 1.0 2.0 0.08 0.14 0.13 98 1007.0
20260504010214 47 144 1.0 2.0 0.07 0.13 0.13 98 1007.1
20260504005503 47 0 0.0 0.0 0.07 0.13 0.12 98 1007.0
20260504005004 47 0 0.0 0.0 0.07 0.12 0.12 98 1007.2
20260504004503 47 0 0.0 0.0 0.07 0.12 0.11 98 1007.1
20260504004003 47 0 0.0 0.0 0.07 0.12 0.11 98 1007.2
20260504003503 47 214 0.0 2.0 0.07 0.11 0.11 98 1007.4
20260504003003 47 199 1.0 2.0 0.08 0.11 0.11 98 1007.4
20260504002712 47 181 1.0 2.0 0.08 0.11 0.11 98 1007.7
20260504002213 47 167 2.0 2.0 0.07 0.10 0.10 98 1007.5
20260504001504 47 168 1.0 2.0 0.06 0.08 0.08 98 1007.6
20260504001003 47 163 0.0 2.0 0.05 0.07 0.06 97 1007.5
20260504000503 47 173 0.0 1.0 0.04 0.06 0.06 97 1007.5
20260504000003 47 0 0.0 0.0 0.04 0.06 0.05 97 1007.5
20260503235503 47 32 0.0 1.0 0.04 0.05 0.05 97 1007.4
20260503235003 47 53 0.0 1.0 0.04 0.05 0.05 97 1007.4